TimeEDT,TemperatureF,Dew PointF,Humidity,Sea Level PressureIn,VisibilityMPH,Wind Direction,Wind SpeedMPH,Gust SpeedMPH,PrecipitationIn,Events,Conditions,WindDirDegrees,DateUTC
12:54 AM,41.0,39.0,93,30.18,10.0,SE,5.8,-,N/A,,Clear,140,2012-10-09 04:54:00
1:54 AM,39.9,39.0,97,30.18,10.0,SSE,3.5,-,N/A,,Clear,150,2012-10-09 05:54:00
2:54 AM,39.0,37.9,96,30.18,10.0,SSE,4.6,-,N/A,,Clear,150,2012-10-09 06:54:00
3:54 AM,37.9,37.0,97,30.17,8.0,SSE,5.8,-,N/A,,Clear,150,2012-10-09 07:54:00
4:54 AM,37.0,37.0,100,30.17,5.0,SSE,3.5,-,N/A,,Clear,160,2012-10-09 08:54:00
5:54 AM,37.9,37.0,97,30.17,6.0,SSE,3.5,-,N/A,,Clear,150,2012-10-09 09:54:00
6:28 AM,35.6,35.6,100,30.17,1.5,SSE,3.5,-,N/A,,Clear,160,2012-10-09 10:28:00
6:37 AM,35.6,35.6,100,30.17,0.5,SE,4.6,-,N/A,Fog,Fog,140,2012-10-09 10:37:00
6:47 AM,37.4,37.4,100,30.17,2.0,SSE,3.5,-,N/A,,Clear,150,2012-10-09 10:47:00
6:54 AM,37.0,37.0,100,30.19,5.0,SSE,4.6,-,N/A,,Clear,160,2012-10-09 10:54:00
7:14 AM,35.6,35.6,100,30.18,1.8,SSE,3.5,-,N/A,,Clear,160,2012-10-09 11:14:00
7:24 AM,35.6,35.6,100,30.18,0.5,SSE,5.8,-,N/A,Fog,Fog,150,2012-10-09 11:24:00
7:36 AM,35.6,35.6,100,30.17,1.2,SSE,5.8,-,N/A,,Clear,150,2012-10-09 11:36:00
7:49 AM,35.6,35.6,100,30.18,2.0,SE,5.8,-,N/A,,Clear,140,2012-10-09 11:49:00
7:54 AM,35.1,35.1,100,30.19,2.0,SE,5.8,-,N/A,,Clear,140,2012-10-09 11:54:00
8:02 AM,35.6,35.6,100,30.18,10.0,SSE,5.8,-,N/A,,Clear,150,2012-10-09 12:02:00
8:54 AM,39.0,39.0,100,30.20,10.0,SSE,5.8,-,N/A,,Clear,150,2012-10-09 12:54:00
9:54 AM,45.0,43.0,93,30.20,10.0,SSE,3.5,-,N/A,,Clear,160,2012-10-09 13:54:00
10:54 AM,51.1,44.1,77,30.19,10.0,SSE,5.8,-,N/A,,Clear,160,2012-10-09 14:54:00
11:54 AM,54.0,42.1,64,30.18,10.0,Variable,5.8,-,N/A,,Clear,0,2012-10-09 15:54:00
12:54 PM,55.0,41.0,59,30.16,10.0,Calm,Calm,-,N/A,,Clear,0,2012-10-09 16:54:00
1:54 PM,57.0,39.9,53,30.12,10.0,SSE,6.9,-,N/A,,Clear,150,2012-10-09 17:54:00
2:54 PM,57.9,39.0,49,30.10,10.0,Variable,5.8,-,N/A,,Clear,0,2012-10-09 18:54:00
3:54 PM,59.0,39.0,48,30.07,10.0,SSW,6.9,-,N/A,,Clear,200,2012-10-09 19:54:00
4:54 PM,60.1,39.9,47,30.05,10.0,SSW,9.2,-,N/A,,Clear,200,2012-10-09 20:54:00
5:54 PM,59.0,39.9,49,30.05,10.0,SSW,9.2,-,N/A,,Clear,200,2012-10-09 21:54:00
6:54 PM,55.0,37.9,53,30.04,10.0,SSW,5.8,-,N/A,,Clear,200,2012-10-09 22:54:00
7:54 PM,51.1,39.9,66,30.04,10.0,South,6.9,-,N/A,,Clear,170,2012-10-09 23:54:00
8:54 PM,50.0,41.0,71,30.04,10.0,South,6.9,-,N/A,,Clear,180,2012-10-10 00:54:00
9:54 PM,48.0,42.1,80,30.04,10.0,SSE,8.1,-,N/A,,Clear,160,2012-10-10 01:54:00
10:54 PM,48.0,43.0,83,30.03,10.0,South,8.1,-,N/A,,Clear,170,2012-10-10 02:54:00
11:54 PM,46.9,43.0,86,30.01,10.0,South,9.2,-,N/A,,Clear,170,2012-10-10 03:54:00